Ortonville, MN

12:35 AM CST on February 09, 2016 (GMT -0600)
Ortonville Municipal-Martinson

Weather History for KVVV - November, 2012

Change the Weather History Date:

Monday, November 12, 2012

  Actual Average (KAQP) Record (KAQP)
Temperature  
Mean Temperature 22 °F -  
Max Temperature 28 °F 39 °F 64 °F (1999)
Min Temperature 15 °F 22 °F 3 °F (1996)
Degree Days  
Heating Degree Days 44    
Moisture  
Dew Point 12 °F    
Average Humidity 69    
Maximum Humidity 86    
Minimum Humidity 51    
Precipitation  
Precipitation 0.00 in - - ()
Sea Level Pressure  
Sea Level Pressure 30.09 in    
Wind  
Wind Speed 13 mph (WNW)    
Max Wind Speed 18 mph    
Max Gust Speed 26 mph    
Visibility 9 miles    
Events Snow    
Averages and records for this station are not official NWS values.
T = Trace of Precipitation, MM = Missing Value Source: NWS Daily Summary

Daily Weather History Graph

Daily Weather History Graph

Search for Another Location

Airport or City:

Trip Planner

Search our weather history database for the weather conditions in past years. The results will help you decide how hot, cold, wet, or windy it might be!

Date:

Astronomy

Nov. 12, 2012 Rise Set
Actual Time 7:20 AM CST 4:58 PM CST
Civil Twilight 6:49 AM CST 5:30 PM CST
Nautical Twilight 6:13 AM CST 6:05 PM CST
Astronomical Twilight 5:38 AM CST 6:40 PM CST
Moon 5:45 AM CST (11/12) 4:05 PM CST (11/12)
Length of Visible Light 10h 41m
Length of Day
9h 37m
Waning Crescent, 2% of the Moon is Illuminated
Nov 12
Waning Crescent
Nov 13
New
Nov 20
First Quarter
Nov 28
Full
Dec 6
Last Quarter

Hourly Weather History & Observations

Time (CST) Temp. Windchill Dew Point Humidity Pressure Visibility Wind Dir Wind Speed Gust Speed Precip Events Conditions
12:14 AM 19.4 °F 7.9 °F 12.2 °F 74% 29.92 in 10.0 mi West 10.4 mph - N/A   Mostly Cloudy
1:14 AM 21.2 °F 7.3 °F 14.0 °F 74% 29.91 in 10.0 mi West 16.1 mph 21.9 mph N/A Snow Light Snow
1:33 AM 21.2 °F 9.5 °F 14.0 °F 74% 29.91 in 7.0 mi WNW 11.5 mph 18.4 mph N/A Snow Light Snow
1:54 AM 21.2 °F 7.3 °F 14.0 °F 74% 29.91 in 4.0 mi WNW 16.1 mph 25.3 mph N/A Snow Light Snow
2:14 AM 19.4 °F 6.0 °F 15.8 °F 86% 29.91 in 3.0 mi WNW 13.8 mph 20.7 mph N/A Snow Light Snow
2:33 AM 19.4 °F 4.5 °F 14.0 °F 80% 29.92 in 5.0 mi WNW 17.3 mph 25.3 mph N/A Snow Light Snow
2:54 AM 19.4 °F 5.5 °F 12.2 °F 74% 29.92 in 5.0 mi WNW 15.0 mph 23.0 mph N/A Snow Light Snow
3:14 AM 19.4 °F 5.0 °F 14.0 °F 80% 29.92 in 5.0 mi West 16.1 mph - N/A Snow Light Snow
3:34 AM 19.4 °F 5.0 °F 12.2 °F 74% 29.92 in 7.0 mi WNW 16.1 mph 24.2 mph N/A   Overcast
3:54 AM 19.4 °F 5.0 °F 12.2 °F 74% 29.92 in 7.0 mi WNW 16.1 mph 23.0 mph N/A Snow Light Snow
4:13 AM 19.4 °F 5.0 °F 12.2 °F 74% 29.92 in 7.0 mi WNW 16.1 mph 25.3 mph N/A   Overcast
4:34 AM 19.4 °F 5.0 °F 14.0 °F 80% 29.93 in 3.0 mi WNW 16.1 mph 26.5 mph N/A Snow Light Snow
4:54 AM 19.4 °F 7.9 °F 14.0 °F 80% 29.95 in 5.0 mi WNW 10.4 mph 23.0 mph N/A Snow Light Snow
5:13 AM 19.4 °F 7.2 °F 15.8 °F 86% 29.95 in 4.0 mi WNW 11.5 mph 23.0 mph N/A Snow Light Snow
5:34 AM 19.4 °F 6.6 °F 15.8 °F 86% 29.95 in 4.0 mi WNW 12.7 mph 16.1 mph N/A Snow Light Snow
5:54 AM 19.4 °F 5.5 °F 14.0 °F 80% 29.96 in 10.0 mi WNW 15.0 mph 21.9 mph N/A Snow Light Snow
6:13 AM 19.4 °F 4.5 °F 10.4 °F 68% 29.96 in 10.0 mi WNW 17.3 mph 23.0 mph N/A   Overcast
6:34 AM 17.6 °F 3.2 °F 10.4 °F 73% 29.97 in 10.0 mi WNW 15.0 mph 20.7 mph N/A   Mostly Cloudy
6:54 AM 17.6 °F 1.7 °F 10.4 °F 73% 29.98 in 10.0 mi NW 18.4 mph 25.3 mph N/A   Overcast
7:13 AM 17.6 °F 2.7 °F 10.4 °F 73% 29.99 in 10.0 mi NW 16.1 mph 21.9 mph N/A   Overcast
7:34 AM 17.6 °F 6.4 °F 10.4 °F 73% 30.00 in 10.0 mi WNW 9.2 mph 17.3 mph N/A   Scattered Clouds
7:54 AM 17.6 °F 5.7 °F 10.4 °F 73% 30.02 in 10.0 mi WNW 10.4 mph 17.3 mph N/A   Mostly Cloudy
8:14 AM 17.6 °F 3.2 °F 10.4 °F 73% 30.02 in 10.0 mi NW 15.0 mph 21.9 mph N/A   Overcast
8:34 AM 15.8 °F 0.3 °F 8.6 °F 73% 30.03 in 10.0 mi WNW 16.1 mph 25.3 mph N/A   Mostly Cloudy
8:53 AM 17.6 °F 2.2 °F 8.6 °F 68% 30.04 in 10.0 mi WNW 17.3 mph 25.3 mph N/A   Clear
9:14 AM 17.6 °F 2.2 °F 8.6 °F 68% 30.04 in 10.0 mi WNW 17.3 mph 20.7 mph N/A   Scattered Clouds
9:53 AM 17.6 °F 1.7 °F 8.6 °F 68% 30.05 in 10.0 mi WNW 18.4 mph 24.2 mph N/A   Scattered Clouds
10:14 AM 19.4 °F 4.1 °F 8.6 °F 63% 30.07 in 10.0 mi WNW 18.4 mph 25.3 mph N/A   Scattered Clouds
10:34 AM 19.4 °F 5.0 °F 10.4 °F 68% 30.08 in 10.0 mi WNW 16.1 mph 24.2 mph N/A   Scattered Clouds
10:54 AM 19.4 °F 4.1 °F 10.4 °F 68% 30.08 in 10.0 mi WNW 18.4 mph 25.3 mph N/A   Clear
11:14 AM 21.2 °F 7.8 °F 10.4 °F 63% 30.09 in 10.0 mi WNW 15.0 mph 20.7 mph N/A   Clear
11:34 AM 21.2 °F 7.8 °F 10.4 °F 63% 30.09 in 10.0 mi WNW 15.0 mph 23.0 mph N/A   Scattered Clouds
11:54 AM 23.0 °F 9.2 °F 10.4 °F 59% 30.09 in 10.0 mi WNW 17.3 mph - N/A   Scattered Clouds
12:14 PM 21.2 °F 7.3 °F 10.4 °F 63% 30.09 in 10.0 mi WNW 16.1 mph 21.9 mph N/A   Mostly Cloudy
12:33 PM 24.8 °F 11.9 °F 12.2 °F 59% 30.09 in 10.0 mi WNW 16.1 mph 20.7 mph N/A   Scattered Clouds
12:54 PM 24.8 °F 11.5 °F 12.2 °F 59% 30.10 in 10.0 mi WNW 17.3 mph 21.9 mph N/A   Mostly Cloudy
1:14 PM 24.8 °F 11.1 °F 12.2 °F 59% 30.11 in 10.0 mi WNW 18.4 mph 25.3 mph N/A   Mostly Cloudy
1:34 PM 24.8 °F 11.9 °F 12.2 °F 59% 30.11 in 10.0 mi WNW 16.1 mph 23.0 mph N/A   Scattered Clouds
1:54 PM 24.8 °F 12.9 °F 12.2 °F 59% 30.12 in 10.0 mi WNW 13.8 mph 21.9 mph N/A   Clear
2:13 PM 26.6 °F 14.7 °F 12.2 °F 55% 30.12 in 10.0 mi WNW 15.0 mph 20.7 mph N/A   Clear
2:34 PM 26.6 °F 14.3 °F 12.2 °F 55% 30.12 in 10.0 mi WNW 16.1 mph 23.0 mph N/A   Clear
2:54 PM 26.6 °F 13.8 °F 12.2 °F 55% 30.13 in 10.0 mi WNW 17.3 mph 20.7 mph N/A   Clear
3:13 PM 26.6 °F 14.3 °F 12.2 °F 55% 30.14 in 10.0 mi WNW 16.1 mph - N/A   Clear
3:34 PM 26.6 °F 13.8 °F 12.2 °F 55% 30.15 in 10.0 mi WNW 17.3 mph 21.9 mph N/A   Clear
3:53 PM 28.4 °F 17.5 °F 12.2 °F 51% 30.16 in 10.0 mi WNW 13.8 mph 21.9 mph N/A   Clear
4:34 PM 26.6 °F 15.7 °F 12.2 °F 55% 30.17 in 10.0 mi WNW 12.7 mph 18.4 mph N/A   Clear
4:53 PM 26.6 °F 15.2 °F 12.2 °F 55% 30.18 in 10.0 mi WNW 13.8 mph - N/A   Clear
5:14 PM 26.6 °F 16.8 °F 12.2 °F 55% 30.18 in 10.0 mi West 10.4 mph 16.1 mph N/A   Clear
5:34 PM 24.8 °F 14.6 °F 12.2 °F 59% 30.19 in 10.0 mi West 10.4 mph - N/A   Clear
5:53 PM 24.8 °F 16.1 °F 12.2 °F 59% 30.21 in 10.0 mi West 8.1 mph - N/A   Clear
6:14 PM 23.0 °F 14.7 °F 12.2 °F 63% 30.21 in 10.0 mi West 6.9 mph - N/A   Clear
6:54 PM 21.2 °F 11.7 °F 12.2 °F 68% 30.22 in 10.0 mi West 8.1 mph - N/A   Clear
7:14 PM 21.2 °F 12.6 °F 12.2 °F 68% 30.22 in 10.0 mi West 6.9 mph - N/A   Clear
7:34 PM 21.2 °F 13.6 °F 12.2 °F 68% 30.22 in 10.0 mi WNW 5.8 mph - N/A   Clear
7:54 PM 21.2 °F 13.6 °F 12.2 °F 68% 30.21 in 10.0 mi WNW 5.8 mph - N/A   Clear
8:14 PM 21.2 °F 14.9 °F 12.2 °F 68% 30.21 in 10.0 mi WNW 4.6 mph - N/A   Clear
8:33 PM 19.4 °F 12.8 °F 12.2 °F 74% 30.23 in 10.0 mi SW 4.6 mph - N/A   Clear
8:54 PM 19.4 °F 14.3 °F 12.2 °F 74% 30.23 in 10.0 mi WSW 3.5 mph - N/A   Clear
9:14 PM 19.4 °F 14.3 °F 12.2 °F 74% 30.23 in 10.0 mi SW 3.5 mph - N/A   Clear
9:33 PM 19.4 °F - 12.2 °F 74% 30.24 in 10.0 mi Calm Calm - N/A   Clear
9:54 PM 19.4 °F 14.3 °F 12.2 °F 74% 30.24 in 10.0 mi SSW 3.5 mph - N/A   Clear
10:14 PM 19.4 °F 14.3 °F 12.2 °F 74% 30.25 in 10.0 mi WSW 3.5 mph - N/A   Clear
10:34 PM 19.4 °F - 10.4 °F 68% 30.25 in 10.0 mi Calm Calm - N/A   Clear
10:54 PM 19.4 °F - 12.2 °F 74% 30.24 in 10.0 mi Calm Calm - N/A   Clear
11:13 PM 19.4 °F 14.3 °F 12.2 °F 74% 30.24 in 10.0 mi South 3.5 mph - N/A   Clear
11:34 PM 19.4 °F 14.3 °F 12.2 °F 74% 30.24 in 10.0 mi South 3.5 mph - N/A   Clear
11:54 PM 17.6 °F 10.7 °F 12.2 °F 79% 30.24 in 10.0 mi South 4.6 mph - N/A   Clear